This demonstration page uses our WeatherBlox Daily Observations layout. Learn more.

Left ArrowRight Arrow

39.01783, -85.05884

Hourly Observations for December 17, 2016

Temp ( °F °C ) Dew Point ( °F °C ) Humidity (%) Winds ( mph kmh ) Pressure ( in mb ) Visibility ( mi km ) Precip ( " mm )
12:52 am 00:52 Cloudy with Light Freezing Drizzle 34 1.1 30 -1.1 85 85 S 15 24 29.72 1006 8 13 0.02 0.51
1:52 am 01:52 Cloudy with Light Freezing Drizzle 33 0.6 32 undefined 96 96 S 8 13 29.71 1006 6 10 0.02 0.51
2:16 am 02:16 Cloudy with Light Rain 34 1 34 1 100 100 S 7 11 29.74 1007 5 8 N/A
2:52 am 02:52 Cloudy with Light Rain 34 1.1 33 0.6 97 97 S 8 13 29.71 1006 3 5 0.05 1.27
3:16 am 03:16 Cloudy with Rain 36 2 34 1 93 93 S 9 15 29.71 1006 3 4 N/A
3:22 am 03:22 Cloudy with Light Rain 36 2.2 35 1.7 97 97 S 10 17 29.71 1006 3 5 0.05 1.27
3:52 am 03:52 Cloudy with Light Rain 38 3.3 38 3.3 100 100 SSW 12 19 29.70 1006 3 5 0.06 1.52
4:52 am 04:52 Cloudy with Light Rain 41 5 40 4.4 96 96 SSW 13 20 29.67 1005 3 5 0.02 0.51
5:52 am 05:52 Cloudy with Light Rain 44 6.7 43 6.1 96 96 SSW 14 22 29.66 1004 6 10 0.02 0.51
6:52 am 06:52 Cloudy 47 8.3 45 7.2 93 93 SSW 16 26 29.66 1004 10 16 0.02 0.51
7:52 am 07:52 Cloudy 49 9.4 47 8.3 93 93 SSW 16 26 29.67 1005 8 13 N/A
8:52 am 08:52 Cloudy with Light Rain 50 10 49 9.4 96 96 SSW 13 20 29.67 1005 6 10 0.01 0.25
9:52 am 09:52 Cloudy with Mist and Fog 52 11.1 50 10 93 93 SSW 17 28 29.67 1005 6 10 0.01 0.25
10:52 am 10:52 Cloudy with Light Rain 54 12.2 52 11.1 93 93 SSW 18 30 29.67 1005 8 13 0.01 0.25
11:52 am 11:52 Cloudy 56 13.3 54 12.2 93 93 SSW 17 28 29.65 1004 9 14 N/A
12:52 pm 12:52 Cloudy 58 14.4 55 12.8 90 90 SSW 16 26 29.62 1003 9 14 N/A
1:52 pm 13:52 Cloudy with Light Rain 58 14.4 56 13.3 93 93 SSW 15 24 29.61 1003 7 11 N/A
2:15 pm 14:15 Cloudy with Light Rain 59 15 56 13.3 90 90 SSW 15 24 29.59 1002 9 14 0.01 0.25
2:52 pm 14:52 Cloudy with Light Rain 61 16.1 57 13.9 87 87 SSW 15 24 29.60 1002 9 14 0.01 0.25
3:52 pm 15:52 Cloudy 61 16.1 58 14.4 90 90 SSW 16 26 29.61 1003 9 14 0.06 1.52
4:52 pm 16:52 Cloudy 61 16.1 59 15 93 93 SSW 13 20 29.60 1002 9 14 0.01 0.25
5:27 pm 17:27 Cloudy 61 16.1 59 15 93 93 SSW 9 15 29.59 1002 10 16 N/A
5:35 pm 17:35 Cloudy with Light Rain 61 16.1 59 15 93 93 S 12 19 29.59 1002 8 13 N/A
5:52 pm 17:52 Cloudy with Light Rain 60 15.6 59 15 96 96 S 14 22 29.60 1002 8 13 0.01 0.25
6:04 pm 18:04 Cloudy with Rain 61 16 59 15 94 94 S 14 22 29.56 1001 2 3 N/A
6:06 pm 18:06 Cloudy with Light Rain 61 16 59 15 94 94 S 12 19 29.56 1001 3 4 N/A
6:10 pm 18:10 Cloudy with Rain 61 16 59 15 94 94 SSW 8 13 29.59 1002 2 3 N/A
6:26 pm 18:26 Cloudy with Light Rain 61 16 61 16 100 100 W 7 11 29.59 1002 3 5 N/A
6:29 pm 18:29 Cloudy with Nearby Thunderstorms 60 15.6 60 15.6 100 100 W 7 11 29.59 1002 2 3 0.13 3.30
6:40 pm 18:40 Cloudy with Nearby Thunderstorms 54 12 52 11 94 94 NNW 20 31 29.62 1003 1 1 N/A
6:52 pm 18:52 Cloudy with Nearby Thunderstorms 49 9.4 48 8.9 97 97 N 16 26 29.60 1003 1 1 0.34 8.64
6:59 pm 18:59 Cloudy with Thunderstorms 48 8.9 48 8.9 100 100 NNW 14 22 29.65 1004 1 1 0.12 3.05
7:17 pm 19:17 Cloudy with Thunderstorms 47 8.3 46 7.8 97 97 NNW 17 28 29.65 1004 1 1 0.38 9.65
7:24 pm 19:24 Cloudy with Rain 46 8 46 8 100 100 NNW 16 26 29.62 1003 4 6 N/A
7:52 pm 19:52 Cloudy with Rain 46 7.8 46 7.8 100 100 NNW 9 15 29.66 1004 3 5 0.55 13.97
8:14 pm 20:14 Cloudy with Rain 45 7 45 7 100 100 N 8 13 29.65 1004 3 5 N/A
8:52 pm 20:52 Cloudy with Heavy Rain 44 6.7 44 6.7 100 100 N 7 11 29.63 1004 4 6 0.22 5.59
9:20 pm 21:20 Cloudy with Rain 45 7 43 6 93 93 N 8 13 29.62 1003 4 6 N/A
9:49 pm 21:49 Cloudy with Rain 45 7 43 6 93 93 NNW 15 24 29.59 1002 4 6 0.18 4.57
9:52 pm 21:52 Cloudy with Rain 43 6.1 42 5.6 97 97 NW 17 28 29.64 1004 4 6 0.18 4.57
10:52 pm 22:52 Cloudy with Light Rain 38 3.3 37 2.8 97 97 NNW 14 22 29.61 1003 6 10 0.07 1.78
11:40 pm 23:40 Cloudy with Light Rain 36 2 36 2 100 100 NNW 13 20 29.68 1005 7 11 N/A
11:52 pm 23:52 Cloudy with Rain 36 2.2 35 1.7 97 97 NNW 16 26 29.66 1005 6 10 0.08 2.03

Powered by AerisWeather